This is the latest recevied weather packets stored in our database for station/object VA3BOO. If no packets are shown the sender has not sent any weather packets the latest 10 day(s).
| Time | Temp. | Humidity | Pressure | Rain* | Wind** | Luminosity | Snow |
|---|---|---|---|---|---|---|---|
| 1777941604 | 14.44° C | 59% | 1002.6 hPa | 0 mm | - | 0 W/m² | - |
| 1777941304 | 14.44° C | 60% | 1002.4 hPa | 0 mm | - | 0 W/m² | - |
| 1777941004 | 14.44° C | 59% | 1002.3 hPa | 0 mm | - | 0 W/m² | - |
| 1777940704 | 14.44° C | 60% | 1002.4 hPa | 0 mm | - | 0 W/m² | - |
| 1777940404 | 15° C | 59% | 1002.5 hPa | 0 mm | - | 0 W/m² | - |
| 1777940104 | 15° C | 59% | 1002.4 hPa | 0 mm | - | 1 W/m² | - |
| 1777939804 | 15° C | 58% | 1002.5 hPa | 0 mm | - | 1 W/m² | - |
| 1777939504 | 15° C | 59% | 1002.3 hPa | 0 mm | - | 3 W/m² | - |
| 1777939204 | 15.56° C | 58% | 1002.1 hPa | 0 mm | - | 5 W/m² | - |
| 1777938904 | 15.56° C | 57% | 1002.1 hPa | 0 mm | - | 7 W/m² | - |
| 1777938604 | 15.56° C | 58% | 1002.1 hPa | 0 mm | - | 9 W/m² | - |
| 1777938304 | 15.56° C | 58% | 1002.2 hPa | 0 mm | - | 12 W/m² | - |
| 1777938004 | 15.56° C | 57% | 1002.3 hPa | 0 mm | - | 14 W/m² | - |
| 1777937704 | 15.56° C | 57% | 1002.2 hPa | 0 mm | - | 16 W/m² | - |
| 1777937404 | 15.56° C | 57% | 1002 hPa | 0 mm | - | 17 W/m² | - |
| 1777937104 | 15.56° C | 57% | 1002 hPa | 0 mm | - | 19 W/m² | - |
| 1777936804 | 15.56° C | 57% | 1002 hPa | 0 mm | - | 23 W/m² | - |
| 1777936504 | 16.11° C | 57% | 1002.2 hPa | 0 mm | - | 23 W/m² | - |
| 1777936204 | 16.11° C | 56% | 1002.3 hPa | 0 mm | - | 27 W/m² | - |
| 1777935904 | 16.11° C | 56% | 1002.1 hPa | 0 mm | - | 28 W/m² | - |
| 1777935604 | 16.67° C | 55% | 1002.2 hPa | 0 mm | - | 29 W/m² | - |
| 1777935304 | 16.67° C | 54% | 1002.3 hPa | 0 mm | - | 38 W/m² | - |
| 1777935004 | 16.67° C | 54% | 1002.2 hPa | 0 mm | - | 46 W/m² | - |
| 1777934704 | 16.67° C | 53% | 1002.3 hPa | 0 mm | - | 53 W/m² | - |
| 1777934404 | 17.22° C | 52% | 1002.4 hPa | 0 mm | - | 61 W/m² | - |
* Rain latest hour (hover to see other rain measurements)
** Current wind speed in m/s (hover to see current wind gust speed)